{"data":{"norad_id":69636,"epoch":"2026-09-17T06:54:12.244608Z","epoch_age_seconds":306448,"freshness":"STALE","line1":"1 69636U 26138J   26260.28764172 -.00000022  00000+0  76889-4 0  9999","line2":"2 69636  55.1491 301.6604 0006633 290.5163  69.5095 14.06624070 13021","mean_motion":14.0662407,"eccentricity":0.0006633,"inclination_deg":55.1491,"raan_deg":301.6604,"arg_perigee_deg":290.5163,"mean_anomaly_deg":69.5095,"bstar":7.6889e-5,"rev_number":1302,"period_min":102.37276829764,"perigee_km":866.13889251861,"apogee_km":875.75552763169,"semimajor_km":7249.0842100751,"source":"CELESTRAK","updated_at":"2026-09-20T09:00:25.032692Z"}}